Traverse City, MI

9:16 PM EST on February 24, 2017 (GMT -0500)
Cherry Capital

Weather History for KTVC - May, 2013

Change the Weather History Date:

Friday, May 17, 2013

  Actual Average Record
Temperature  
Mean Temperature 50 °F 54 °F  
Max Temperature 62 °F 66 °F 91 °F (1903)
Min Temperature 38 °F 42 °F 25 °F (1983)
Degree Days  
Heating Degree Days 15 12  
Month to date heating degree days 225 239  
Since 1 July heating degree days 6884 7306  
Cooling Degree Days 0 0  
Month to date cooling degree days 2 0  
Year to date cooling degree days 4 3  
Moisture  
Dew Point 42 °F    
Average Humidity 70    
Maximum Humidity 92    
Minimum Humidity 48    
Precipitation  
Precipitation T in 0.08 in 0.55 in (1969)
Month to date precipitation 0.87 1.41  
Year to date precipitation 10.55 10.37  
Sea Level Pressure  
Sea Level Pressure 30.14 in    
Wind  
Wind Speed 2 mph (ENE)    
Max Wind Speed 7 mph    
Max Gust Speed 10 mph    
Visibility 10 miles    
Events      
T = Trace of Precipitation, MM = Missing Value Source: NWS Daily Summary

Daily Weather History Graph

Daily Weather History Graph

Search for Another Location

Airport or City:

Trip Planner

Search our weather history database for the weather conditions in past years. The results will help you decide how hot, cold, wet, or windy it might be!

Date:

Astronomy

May. 17, 2013 Rise Set
Actual Time 6:11 AM EDT 9:06 PM EDT
Civil Twilight 5:37 AM EDT 9:40 PM EDT
Nautical Twilight 4:53 AM EDT 10:24 PM EDT
Astronomical Twilight 4:02 AM EDT 11:16 PM EDT
Moon 12:50 PM EDT (5/17) 1:52 AM EDT (5/17)
Length of Visible Light 16h 03m
Length of Day
14h 54m
Waxing Crescent, 45% of the Moon is Illuminated
May 17
Waxing Crescent
May 18
First Quarter
May 25
Full
May 31
Last Quarter
Jun 8
New

Hourly Weather History & Observations

Time (EDT) Temp. Windchill Dew Point Humidity Pressure Visibility Wind Dir Wind Speed Gust Speed Precip Events Conditions
12:53 AM 42.1 °F - 37.9 °F 85% 30.09 in 10.0 mi Calm Calm - N/A   Clear
1:53 AM 39.9 °F - 37.0 °F 89% 30.08 in 10.0 mi Calm Calm - N/A   Clear
2:53 AM 39.9 °F - 37.0 °F 89% 30.09 in 10.0 mi Calm Calm - N/A   Clear
3:53 AM 39.9 °F - 37.0 °F 89% 30.10 in 10.0 mi Calm Calm - N/A   Clear
4:53 AM 39.0 °F - 36.0 °F 89% 30.09 in 10.0 mi Calm Calm - N/A   Clear
5:53 AM 43.0 °F - 39.9 °F 89% 30.11 in 10.0 mi Calm Calm - N/A   Overcast
6:53 AM 42.1 °F 40.2 °F 39.9 °F 92% 30.12 in 10.0 mi East 3.5 mph - N/A   Overcast
7:53 AM 46.0 °F - 41.0 °F 83% 30.14 in 10.0 mi Calm Calm - N/A   Overcast
8:53 AM 48.0 °F - 39.9 °F 74% 30.16 in 10.0 mi ENE 3.5 mph - N/A   Overcast
9:53 AM 48.9 °F - 41.0 °F 74% 30.19 in 10.0 mi NW 5.8 mph - N/A   Overcast
10:53 AM 52.0 °F - 42.1 °F 69% 30.19 in 10.0 mi East 4.6 mph - N/A   Overcast
11:53 AM 54.0 °F - 42.1 °F 64% 30.19 in 10.0 mi Calm Calm - N/A   Overcast
12:53 PM 57.0 °F - 42.1 °F 57% 30.19 in 10.0 mi Calm Calm - N/A   Overcast
1:53 PM 62.1 °F - 43.0 °F 50% 30.18 in 10.0 mi Calm Calm - N/A   Overcast
3:53 PM 62.1 °F - 44.1 °F 52% 30.17 in 10.0 mi NNW 4.6 mph - 0.00 in   Overcast
4:53 PM 59.0 °F - 43.0 °F 55% 30.15 in 10.0 mi NE 3.5 mph - N/A   Overcast
5:53 PM 57.9 °F - 46.9 °F 67% 30.12 in 10.0 mi ENE 4.6 mph - 0.00 in   Overcast
6:53 PM 57.0 °F - 44.1 °F 62% 30.12 in 10.0 mi Calm Calm - N/A   Overcast
7:53 PM 57.9 °F - 48.0 °F 70% 30.14 in 10.0 mi Calm Calm - N/A   Overcast
8:53 PM 57.0 °F - 46.9 °F 69% 30.14 in 10.0 mi Variable 3.5 mph - N/A   Overcast
9:53 PM 57.0 °F - 45.0 °F 64% 30.16 in 10.0 mi Calm Calm - N/A   Overcast
10:53 PM 57.0 °F - 44.1 °F 62% 30.17 in 10.0 mi SSE 3.5 mph - N/A   Overcast
11:53 PM 55.9 °F - 42.1 °F 60% 30.17 in 10.0 mi East 4.6 mph - N/A   Overcast